Weather History for Crestview, FL

Change the Weather History Date:

Friday, November 30, 2012

  Actual Average Record
Temperature  
Mean Temperature 58 °F -  
Max Temperature 72 °F - - ()
Min Temperature 45 °F - - ()
Degree Days  
Heating Degree Days 6    
Growing Degree Days 8 (Base 50)    
Moisture  
Dew Point 51 °F    
Average Humidity 82    
Maximum Humidity 99    
Minimum Humidity 47    
Precipitation  
Precipitation 0.00 in - - ()
Sea Level Pressure  
Sea Level Pressure 30.27 in    
Wind  
Wind Speed 3 mph (East)    
Max Wind Speed 12 mph    
Max Gust Speed -    
Visibility 10 miles    
Events      
T = Trace of Precipitation, MM = Missing Value Source: NWS Daily Summary

Daily Weather History Graph

Daily Weather History Graph

Search for Another Location

Airport:

Trip Planner

Search our weather history database for the weather conditions in past years. The results will help you decide how hot, cold, wet, or windy it might be!

Date:

Astronomy

Nov. 30, 2012 Rise Set
Actual Time 6:25 AM CST 4:44 PM CST
Civil Twilight 5:59 AM CST 5:10 PM CST
Nautical Twilight 5:29 AM CST 5:40 PM CST
Astronomical Twilight 5:00 AM CST 6:09 PM CST
Moon 6:37 PM CST (11/30) 7:57 AM CST (11/30)
Length of Visible Light 11h 11m
Length of Day
10h 19m
Waning Gibbous, 96% of the Moon is Illuminated
Nov 30
Waning Gibbous
Dec 6
Last Quarter
Dec 13
New
Dec 19
First Quarter
Dec 28
Full

Hourly Weather History & Observations

Time (CST) Temp. Dew Point Humidity Pressure Visibility Wind Dir Wind Speed Gust Speed Precip Events Conditions
12:55 AM 47.8 °F 47.3 °F 98% 30.29 in 9.0 mi Calm Calm - N/A   Mostly Cloudy
1:55 AM 48.7 °F 47.5 °F 95% 30.30 in 10.0 mi NNE 3.5 mph - N/A   Partly Cloudy
2:55 AM 48.9 °F 47.3 °F 94% 30.28 in 10.0 mi NE 3.5 mph - N/A   Partly Cloudy
3:55 AM 47.8 °F 46.4 °F 95% 30.28 in 10.0 mi ENE 4.6 mph - N/A   Clear
4:55 AM 47.1 °F 46.4 °F 97% 30.28 in 10.0 mi NE 4.6 mph - N/A   Clear
5:55 AM 45.7 °F 45.1 °F 98% 30.29 in 7.0 mi Calm Calm - N/A   Scattered Clouds
6:55 AM 46.2 °F 46.0 °F 99% 30.30 in 5.0 mi Calm Calm - N/A   Mostly Cloudy
7:55 AM 49.3 °F 49.1 °F 99% 30.31 in 9.0 mi NNE 3.5 mph - N/A   Scattered Clouds
8:55 AM 55.2 °F 52.5 °F 91% 30.32 in 10.0 mi Calm Calm - N/A   Mostly Cloudy
9:55 AM 64.4 °F 52.9 °F 66% 30.31 in 10.0 mi Variable 5.8 mph - N/A   Mostly Cloudy
10:55 AM 68.9 °F 52.2 °F 55% 30.30 in 10.0 mi SE 5.8 mph - N/A   Mostly Cloudy
11:55 AM 71.2 °F 53.2 °F 53% 30.27 in 10.0 mi Variable 6.9 mph - N/A   Mostly Cloudy
12:55 PM 72.3 °F 53.1 °F 51% 30.24 in 10.0 mi SE 10.4 mph - N/A   Scattered Clouds
1:55 PM 70.5 °F 49.5 °F 47% 30.22 in 10.0 mi SSE 11.5 mph - N/A   Mostly Cloudy
2:55 PM 70.9 °F 53.4 °F 54% 30.22 in 10.0 mi SSE 8.1 mph - N/A   Scattered Clouds
3:55 PM 67.5 °F 54.7 °F 64% 30.22 in 10.0 mi South 6.9 mph - N/A   Mostly Cloudy
4:55 PM 64.8 °F 55.6 °F 72% 30.24 in 10.0 mi Calm Calm - N/A   Mostly Cloudy
5:55 PM 59.0 °F 54.5 °F 85% 30.24 in 10.0 mi Calm Calm - N/A   Mostly Cloudy
6:55 PM 59.5 °F 54.7 °F 84% 30.25 in 10.0 mi Variable 3.5 mph - N/A   Mostly Cloudy
7:55 PM 54.9 °F 53.1 °F 94% 30.26 in 10.0 mi Calm Calm - N/A   Scattered Clouds
8:55 PM 53.4 °F 51.8 °F 94% 30.26 in 10.0 mi Calm Calm - N/A   Partly Cloudy
9:55 PM 54.7 °F 54.1 °F 98% 30.26 in 10.0 mi Calm Calm - N/A   Partly Cloudy
10:55 PM 51.1 °F 50.4 °F 97% 30.25 in 9.0 mi Calm Calm - N/A   Partly Cloudy
11:55 PM 49.1 °F 48.7 °F 99% 30.24 in 9.0 mi Calm Calm - N/A   Clear